QPF
0.02 0.03 0.02 0.01 0.00 0.00 0.00 0.00 0.00 0.00 0.00 0.00 0.00 0.00 0.00 0.00 0.00 0.00 0.00 0.00 0.00 0.00 0.00 0.00 0.00 0.00 0.00 0.00 0.00 0.00 0.00 0.00 0.01 0.02 0.03 0.03 0.05 0.07 0.06 0.06 0.06 0.06 0.06 0.05
0.03 0.02 0.00 0.00 0.00 0.00 0.00 0.00 0.00 0.00 0.00 0.00 0.00 0.00 0.00 0.00 0.00 0.00 0.00 0.00 0.00 0.00 0.00 0.00 0.00 0.00 0.00 0.00 0.00 0.00 0.00 0.00 0.00 0.01 0.03 0.03 0.04 0.07 0.08 0.07 0.07 0.06 0.05 0.05
0.01 0.01 0.00 0.01 0.01 0.01 0.01 0.00 0.00 0.00 0.00 0.00 0.00 0.00 0.00 0.00 0.00 0.00 0.00 0.00 0.00 0.00 0.00 0.00 0.00 0.00 0.00 0.00 0.00 0.00 0.00 0.00 0.00 0.01 0.02 0.03 0.03 0.06 0.08 0.07 0.06 0.05 0.05 0.05
0.01 0.01 0.01 0.01 0.01 0.02 0.01 0.00 0.00 0.00 0.00 0.00 0.00 0.00 0.00 0.00 0.00 0.00 0.00 0.00 0.00 0.00 0.00 0.00 0.00 0.00 0.00 0.00 0.00 0.00 0.00 0.00 0.01 0.01 0.01 0.01 0.02 0.03 0.06 0.07 0.05 0.04 0.04 0.04
0.02 0.01 0.01 0.01 0.01 0.01 0.01 0.01 0.01 0.01 0.01 0.01 0.00 0.00 0.00 0.00 0.00 0.00 0.00 0.00 0.00 0.00 0.00 0.00 0.00 0.00 0.00 0.00 0.00 0.00 0.00 0.00 0.00 0.01 0.01 0.01 0.01 0.02 0.04 0.06 0.06 0.04 0.03 0.04
0.02 0.02 0.02 0.01 0.01 0.01 0.02 0.02 0.02 0.02 0.04 0.03 0.00 0.00 0.00 0.00 0.00 0.00 0.00 0.00 0.00 0.00 0.00 0.00 0.00 0.00 0.00 0.00 0.00 0.00 0.01 0.01 0.01 0.01 0.01 0.01 0.01 0.02 0.03 0.05 0.06 0.06 0.04 0.03
0.03 0.03 0.03 0.02 0.02 0.02 0.03 0.05 0.07 0.08 0.07 0.02 0.00 0.00 0.01 0.00 0.00 0.01 0.01 0.01 0.01 0.01 0.01 0.01 0.01 0.01 0.01 0.01 0.01 0.01 0.01 0.01 0.01 0.02 0.02 0.02 0.01 0.02 0.02 0.04 0.05 0.06 0.06 0.04
0.03 0.03 0.04 0.04 0.03 0.03 0.03 0.04 0.05 0.03 0.01 0.00 0.00 0.00 0.01 0.01 0.01 0.01 0.01 0.01 0.01 0.01 0.00 0.00 0.00 0.00 0.00 0.00 0.00 0.00 0.00 0.00 0.01 0.01 0.01 0.02 0.02 0.02 0.02 0.03 0.05 0.05 0.07 0.06
0.04 0.03 0.02 0.02 0.02 0.02 0.03 0.03 0.03 0.03 0.02 0.01 0.01 0.01 0.01 0.01 0.00 0.00 0.01 0.01 0.01 0.00 0.00 0.00 0.00 0.00 0.00 0.00 0.00 0.00 0.00 0.01 0.01 0.01 0.01 0.01 0.01 0.02 0.03 0.03 0.04 0.04 0.05 0.06
0.06 0.03 0.01 0.01 0.03 0.03 0.03 0.03 0.05 0.07 0.05 0.02 0.01 0.01 0.01 0.01 0.01 0.01 0.01 0.01 0.00 0.00 0.00 0.00 0.00 0.00 0.00 0.00 0.00 0.00 0.01 0.01 0.01 0.01 0.02 0.02 0.01 0.02 0.03 0.03 0.04 0.05 0.05 0.04
0.05 0.05 0.02 0.02 0.04 0.04 0.04 0.06 0.08 0.07 0.05 0.03 0.02 0.02 0.01 0.01 0.01 0.00 0.01 0.00 0.00 0.00 0.00 0.00 0.00 0.01 0.01 0.01 0.01 0.01 0.01 0.01 0.01 0.01 0.02 0.02 0.02 0.02 0.02 0.02 0.03 0.04 0.05 0.05
0.06 0.08 0.05 0.02 0.02 0.02 0.03 0.05 0.07 0.09 0.07 0.05 0.03 0.02 0.01 0.00 0.00 0.00 0.00 0.00 0.00 0.00 0.00 0.00 0.00 0.01 0.02 0.02 0.02 0.02 0.02 0.02 0.02 0.02 0.02 0.02 0.03 0.03 0.03 0.03 0.04 0.04 0.04 0.05
0.09 0.11 0.07 0.05 0.04 0.03 0.04 0.04 0.05 0.07 0.07 0.05 0.04 0.03 0.01 0.00 0.00 0.00 0.00 0.00 0.00 0.00 0.00 0.00 0.00 0.01 0.02 0.02 0.03 0.03 0.04 0.04 0.04 0.04 0.03 0.03 0.04 0.04 0.05 0.05 0.05 0.06 0.05 0.07
0.08 0.10 0.07 0.06 0.04 0.04 0.04 0.03 0.03 0.04 0.06 0.04 0.03 0.02 0.01 0.01 0.01 0.01 0.00 0.00 0.00 0.00 0.00 0.00 0.00 0.01 0.02 0.02 0.03 0.04 0.04 0.04 0.05 0.06 0.05 0.05 0.05 0.05 0.06 0.06 0.06 0.06 0.06 0.07
0.05 0.08 0.05 0.03 0.02 0.02 0.02 0.02 0.02 0.03 0.03 0.03 0.02 0.01 0.01 0.01 0.01 0.00 0.00 0.00 0.00 0.00 0.00 0.00 0.00 0.01 0.01 0.02 0.02 0.02 0.03 0.04 0.04 0.05 0.06 0.06 0.06 0.06 0.06 0.06 0.07 0.07 0.06 0.06
0.04 0.04 0.03 0.03 0.02 0.02 0.03 0.02 0.02 0.02 0.02 0.02 0.02 0.02 0.01 0.02 0.01 0.01 0.01 0.01 0.00 0.00 0.00 0.00 0.00 0.01 0.01 0.01 0.01 0.02 0.02 0.02 0.03 0.04 0.05 0.05 0.06 0.05 0.05 0.05 0.06 0.05 0.05 0.05
0.05 0.04 0.04 0.04 0.03 0.03 0.05 0.05 0.04 0.03 0.03 0.02 0.03 0.03 0.03 0.02 0.01 0.01 0.01 0.01 0.01 0.00 0.00 0.00 0.00 0.00 0.01 0.01 0.01 0.02 0.02 0.02 0.03 0.02 0.03 0.04 0.04 0.04 0.04 0.04 0.04 0.04 0.04 0.04
0.03 0.04 0.04 0.05 0.06 0.06 0.07 0.05 0.04 0.03 0.04 0.03 0.03 0.04 0.03 0.02 0.02 0.02 0.01 0.02 0.02 0.02 0.01 0.01 0.00 0.00 0.01 0.01 0.02 0.02 0.02 0.02 0.02 0.02 0.02 0.03 0.03 0.04 0.04 0.04 0.04 0.03 0.03 0.03
0.02 0.04 0.04 0.05 0.06 0.07 0.05 0.05 0.06 0.05 0.05 0.04 0.04 0.03 0.03 0.02 0.02 0.03 0.02 0.02 0.01 0.02 0.02 0.01 0.00 0.00 0.00 0.01 0.02 0.03 0.03 0.03 0.02 0.01 0.02 0.02 0.02 0.03 0.03 0.03 0.03 0.03 0.03 0.03
0.01 0.03 0.04 0.04 0.05 0.06 0.06 0.04 0.04 0.04 0.05 0.05 0.04 0.03 0.02 0.02 0.02 0.03 0.03 0.02 0.01 0.01 0.02 0.02 0.01 0.00 0.01 0.00 0.01 0.01 0.03 0.03 0.03 0.02 0.02 0.02 0.02 0.02 0.02 0.03 0.03 0.03 0.03 0.03
0.02 0.04 0.04 0.04 0.04 0.05 0.05 0.03 0.03 0.05 0.06 0.05 0.05 0.04 0.03 0.02 0.02 0.02 0.01 0.01 0.01 0.01 0.01 0.02 0.01 0.01 0.01 0.01 0.01 0.01 0.01 0.02 0.03 0.02 0.02 0.02 0.03 0.03 0.02 0.02 0.03 0.03 0.03 0.03
0.04 0.04 0.04 0.04 0.04 0.05 0.03 0.03 0.06 0.07 0.04 0.04 0.04 0.03 0.03 0.02 0.02 0.01 0.01 0.01 0.01 0.02 0.02 0.02 0.02 0.02 0.02 0.01 0.01 0.01 0.01 0.01 0.02 0.02 0.02 0.03 0.03 0.04 0.03 0.03 0.03 0.03 0.04 0.03
0.05 0.05 0.04 0.04 0.05 0.05 0.04 0.06 0.06 0.05 0.05 0.04 0.03 0.03 0.02 0.02 0.02 0.01 0.01 0.01 0.01 0.01 0.02 0.04 0.03 0.03 0.03 0.03 0.02 0.02 0.02 0.02 0.02 0.02 0.02 0.03 0.03 0.04 0.04 0.04 0.03 0.03 0.03 0.03
0.04 0.03 0.02 0.03 0.04 0.04 0.03 0.03 0.03 0.03 0.04 0.04 0.03 0.03 0.02 0.02 0.02 0.02 0.02 0.01 0.01 0.01 0.01 0.02 0.04 0.04 0.04 0.03 0.02 0.02 0.02 0.02 0.02 0.02 0.03 0.03 0.04 0.04 0.04 0.04 0.04 0.04 0.03 0.03
0.04 0.03 0.02 0.03 0.03 0.02 0.02 0.02 0.02 0.02 0.02 0.02 0.03 0.02 0.02 0.02 0.02 0.02 0.02 0.02 0.02 0.02 0.02 0.02 0.03 0.04 0.04 0.03 0.02 0.02 0.02 0.02 0.02 0.02 0.03 0.03 0.04 0.05 0.05 0.04 0.04 0.05 0.04 0.04
0.05 0.04 0.04 0.04 0.04 0.04 0.03 0.03 0.02 0.02 0.02 0.03 0.03 0.02 0.02 0.02 0.03 0.02 0.02 0.02 0.02 0.02 0.02 0.02 0.02 0.03 0.04 0.03 0.02 0.01 0.02 0.02 0.02 0.02 0.03 0.03 0.03 0.04 0.05 0.04 0.04 0.04 0.04 0.03
MSLP
1010.96 1011.30 1011.64 1012.00 1012.36 1012.72 1013.06 1013.33 1013.48 1013.45 1013.19 1012.69 1011.94 1011.01 1009.96 1008.87 1007.86 1006.99 1006.31 1005.84 1005.55 1005.43 1005.40 1005.42 1005.46 1005.50 1005.54 1005.60 1005.72 1005.91 1006.19 1006.57 1007.01 1007.51 1008.03 1008.55 1009.07 1009.60 1010.14 1010.71 1011.35 1012.07 1012.86 1013.72
1010.23 1010.51 1010.85 1011.25 1011.70 1012.21 1012.72 1013.18 1013.50 1013.60 1013.40 1012.90 1012.08 1011.01 1009.79 1008.52 1007.34 1006.34 1005.59 1005.10 1004.84 1004.78 1004.83 1004.93 1005.02 1005.08 1005.11 1005.14 1005.20 1005.33 1005.57 1005.91 1006.34 1006.84 1007.38 1007.94 1008.49 1009.03 1009.59 1010.17 1010.81 1011.52 1012.32 1013.20
1009.44 1009.66 1009.97 1010.39 1010.93 1011.56 1012.24 1012.87 1013.34 1013.55 1013.42 1012.91 1012.04 1010.87 1009.51 1008.11 1006.81 1005.72 1004.92 1004.43 1004.22 1004.22 1004.34 1004.51 1004.64 1004.72 1004.73 1004.72 1004.73 1004.81 1005.00 1005.32 1005.74 1006.26 1006.83 1007.42 1008.00 1008.57 1009.13 1009.72 1010.35 1011.06 1011.85 1012.72
1008.70 1008.81 1009.06 1009.47 1010.05 1010.77 1011.55 1012.30 1012.88 1013.18 1013.11 1012.61 1011.70 1010.47 1009.03 1007.55 1006.19 1005.07 1004.26 1003.80 1003.63 1003.70 1003.89 1004.10 1004.26 1004.34 1004.34 1004.29 1004.26 1004.30 1004.45 1004.75 1005.19 1005.72 1006.33 1006.96 1007.57 1008.17 1008.75 1009.34 1009.97 1010.67 1011.45 1012.32
1008.13 1008.10 1008.24 1008.59 1009.14 1009.87 1010.70 1011.51 1012.15 1012.50 1012.46 1011.97 1011.06 1009.80 1008.35 1006.85 1005.49 1004.38 1003.61 1003.20 1003.09 1003.21 1003.44 1003.69 1003.86 1003.93 1003.90 1003.81 1003.74 1003.74 1003.88 1004.18 1004.63 1005.20 1005.85 1006.52 1007.17 1007.80 1008.40 1009.00 1009.64 1010.33 1011.11 1011.97
1007.85 1007.65 1007.64 1007.87 1008.34 1009.01 1009.81 1010.60 1011.24 1011.60 1011.55 1011.08 1010.18 1008.95 1007.52 1006.07 1004.76 1003.72 1003.02 1002.67 1002.62 1002.78 1003.04 1003.28 1003.44 1003.48 1003.41 1003.28 1003.17 1003.15 1003.28 1003.58 1004.06 1004.66 1005.35 1006.06 1006.76 1007.43 1008.05 1008.67 1009.31 1010.01 1010.80 1011.67
1007.98 1007.58 1007.40 1007.47 1007.80 1008.35 1009.05 1009.76 1010.34 1010.64 1010.58 1010.10 1009.22 1008.04 1006.69 1005.33 1004.12 1003.17 1002.56 1002.28 1002.28 1002.46 1002.72 1002.94 1003.05 1003.04 1002.92 1002.74 1002.59 1002.55 1002.66 1002.97 1003.46 1004.10 1004.82 1005.57 1006.31 1007.01 1007.67 1008.31 1008.97 1009.69 1010.50 1011.40
1008.56 1007.98 1007.62 1007.51 1007.67 1008.07 1008.61 1009.18 1009.64 1009.85 1009.73 1009.24 1008.39 1007.27 1006.01 1004.76 1003.67 1002.84 1002.31 1002.09 1002.12 1002.30 1002.53 1002.70 1002.75 1002.67 1002.48 1002.25 1002.06 1001.98 1002.08 1002.39 1002.88 1003.53 1004.28 1005.05 1005.82 1006.55 1007.23 1007.90 1008.59 1009.35 1010.19 1011.13
1009.56 1008.84 1008.32 1008.05 1008.03 1008.24 1008.61 1009.00 1009.31 1009.40 1009.20 1008.67 1007.84 1006.78 1005.61 1004.48 1003.50 1002.77 1002.33 1002.15 1002.19 1002.34 1002.51 1002.61 1002.59 1002.43 1002.17 1001.89 1001.65 1001.53 1001.61 1001.90 1002.38 1003.02 1003.76 1004.54 1005.32 1006.06 1006.77 1007.47 1008.19 1008.98 1009.87 1010.87
1010.87 1010.06 1009.43 1009.02 1008.86 1008.90 1009.07 1009.28 1009.41 1009.36 1009.06 1008.48 1007.65 1006.64 1005.56 1004.52 1003.64 1002.99 1002.60 1002.44 1002.46 1002.56 1002.66 1002.68 1002.57 1002.34 1002.02 1001.69 1001.41 1001.26 1001.31 1001.56 1002.02 1002.63 1003.34 1004.11 1004.87 1005.61 1006.32 1007.04 1007.79 1008.62 1009.56 1010.61
1012.29 1011.45 1010.78 1010.29 1010.02 1009.91 1009.92 1009.96 1009.92 1009.72 1009.31 1008.67 1007.82 1006.84 1005.81 1004.85 1004.04 1003.44 1003.06 1002.90 1002.87 1002.91 1002.94 1002.87 1002.70 1002.41 1002.04 1001.67 1001.37 1001.20 1001.23 1001.45 1001.86 1002.42 1003.09 1003.81 1004.54 1005.26 1005.97 1006.69 1007.47 1008.32 1009.29 1010.38
1013.60 1012.80 1012.14 1011.63 1011.28 1011.08 1010.95 1010.84 1010.65 1010.32 1009.80 1009.09 1008.22 1007.25 1006.25 1005.33 1004.56 1003.98 1003.60 1003.40 1003.32 1003.30 1003.24 1003.12 1002.89 1002.57 1002.20 1001.83 1001.53 1001.36 1001.37 1001.56 1001.93 1002.44 1003.05 1003.72 1004.40 1005.08 1005.77 1006.49 1007.27 1008.14 1009.12 1010.23
1014.63 1013.91 1013.30 1012.81 1012.44 1012.17 1011.95 1011.72 1011.41 1010.97 1010.36 1009.59 1008.69 1007.72 1006.74 1005.84 1005.09 1004.50 1004.10 1003.85 1003.71 1003.62 1003.51 1003.34 1003.10 1002.79 1002.44 1002.11 1001.84 1001.70 1001.72 1001.90 1002.24 1002.70 1003.25 1003.86 1004.49 1005.13 1005.80 1006.50 1007.27 1008.14 1009.12 1010.23
1015.28 1014.65 1014.11 1013.67 1013.31 1013.01 1012.73 1012.41 1012.01 1011.48 1010.81 1010.00 1009.08 1008.10 1007.14 1006.25 1005.49 1004.89 1004.46 1004.16 1003.96 1003.82 1003.67 1003.50 1003.27 1003.00 1002.71 1002.45 1002.26 1002.18 1002.23 1002.42 1002.75 1003.18 1003.68 1004.24 1004.83 1005.43 1006.07 1006.76 1007.51 1008.36 1009.33 1010.41
1015.53 1015.00 1014.54 1014.15 1013.81 1013.50 1013.18 1012.81 1012.34 1011.76 1011.04 1010.20 1009.28 1008.31 1007.36 1006.49 1005.73 1005.12 1004.65 1004.31 1004.07 1003.89 1003.73 1003.56 1003.38 1003.18 1002.99 1002.83 1002.74 1002.74 1002.85 1003.08 1003.42 1003.83 1004.32 1004.84 1005.40 1005.98 1006.60 1007.28 1008.02 1008.85 1009.78 1010.82
1015.49 1015.05 1014.65 1014.29 1013.97 1013.65 1013.31 1012.89 1012.39 1011.77 1011.03 1010.19 1009.28 1008.33 1007.41 1006.56 1005.81 1005.19 1004.70 1004.33 1004.06 1003.86 1003.71 1003.58 1003.45 1003.34 1003.26 1003.22 1003.24 1003.35 1003.54 1003.83 1004.19 1004.62 1005.10 1005.62 1006.17 1006.75 1007.37 1008.03 1008.77 1009.58 1010.48 1011.46
1015.34 1014.94 1014.58 1014.24 1013.92 1013.59 1013.21 1012.76 1012.22 1011.58 1010.83 1010.00 1009.12 1008.21 1007.32 1006.50 1005.78 1005.16 1004.67 1004.29 1004.01 1003.82 1003.68 1003.59 1003.54 1003.52 1003.55 1003.63 1003.77 1003.98 1004.26 1004.62 1005.03 1005.49 1005.99 1006.52 1007.08 1007.67 1008.30 1008.98 1009.72 1010.52 1011.39 1012.33
1015.24 1014.87 1014.52 1014.18 1013.83 1013.46 1013.04 1012.55 1011.97 1011.30 1010.55 1009.74 1008.88 1008.02 1007.18 1006.40 1005.71 1005.12 1004.64 1004.27 1004.00 1003.82 1003.72 1003.68 1003.70 1003.77 1003.90 1004.09 1004.34 1004.64 1005.01 1005.43 1005.89 1006.39 1006.92 1007.48 1008.06 1008.69 1009.35 1010.05 1010.80 1011.60 1012.45 1013.35
1015.35 1014.99 1014.62 1014.26 1013.87 1013.43 1012.95 1012.39 1011.76 1011.06 1010.29 1009.48 1008.65 1007.82 1007.03 1006.30 1005.65 1005.10 1004.65 1004.31 1004.07 1003.92 1003.86 1003.87 1003.96 1004.11 1004.33 1004.61 1004.94 1005.33 1005.76 1006.23 1006.74 1007.28 1007.85 1008.44 1009.07 1009.72 1010.42 1011.15 1011.93 1012.74 1013.58 1014.44
1015.73 1015.36 1014.98 1014.56 1014.11 1013.59 1013.02 1012.38 1011.67 1010.91 1010.11 1009.28 1008.46 1007.66 1006.90 1006.22 1005.62 1005.11 1004.71 1004.41 1004.21 1004.11 1004.09 1004.17 1004.32 1004.54 1004.83 1005.18 1005.58 1006.03 1006.51 1007.03 1007.57 1008.15 1008.74 1009.37 1010.03 1010.72 1011.46 1012.22 1013.02 1013.85 1014.68 1015.53
1016.36 1015.99 1015.57 1015.09 1014.55 1013.94 1013.26 1012.51 1011.70 1010.86 1009.99 1009.13 1008.29 1007.50 1006.77 1006.12 1005.57 1005.12 1004.77 1004.52 1004.38 1004.34 1004.39 1004.52 1004.74 1005.03 1005.38 1005.79 1006.24 1006.73 1007.25 1007.80 1008.37 1008.96 1009.59 1010.24 1010.93 1011.66 1012.42 1013.22 1014.04 1014.87 1015.71 1016.55
1017.16 1016.77 1016.32 1015.77 1015.14 1014.41 1013.61 1012.73 1011.81 1010.86 1009.91 1008.99 1008.11 1007.30 1006.58 1005.96 1005.45 1005.05 1004.76 1004.59 1004.52 1004.54 1004.67 1004.88 1005.17 1005.52 1005.93 1006.39 1006.89 1007.41 1007.96 1008.53 1009.12 1009.73 1010.37 1011.05 1011.76 1012.51 1013.30 1014.12 1014.95 1015.79 1016.63 1017.45
1017.99 1017.60 1017.10 1016.48 1015.75 1014.90 1013.97 1012.96 1011.91 1010.85 1009.80 1008.80 1007.88 1007.04 1006.32 1005.72 1005.24 1004.90 1004.67 1004.57 1004.58 1004.69 1004.90 1005.19 1005.56 1005.98 1006.46 1006.97 1007.51 1008.06 1008.64 1009.23 1009.84 1010.46 1011.12 1011.81 1012.54 1013.31 1014.11 1014.94 1015.78 1016.62 1017.45 1018.26
1018.77 1018.36 1017.81 1017.11 1016.28 1015.32 1014.26 1013.13 1011.96 1010.79 1009.65 1008.58 1007.60 1006.74 1006.01 1005.42 1004.99 1004.69 1004.53 1004.50 1004.59 1004.79 1005.09 1005.47 1005.91 1006.41 1006.95 1007.51 1008.10 1008.69 1009.29 1009.91 1010.54 1011.18 1011.86 1012.57 1013.31 1014.09 1014.90 1015.73 1016.57 1017.40 1018.21 1019.00
1019.42 1018.97 1018.37 1017.60 1016.67 1015.61 1014.45 1013.22 1011.95 1010.70 1009.49 1008.37 1007.35 1006.48 1005.75 1005.18 1004.78 1004.53 1004.43 1004.47 1004.64 1004.92 1005.30 1005.76 1006.28 1006.85 1007.45 1008.07 1008.69 1009.33 1009.96 1010.61 1011.26 1011.93 1012.63 1013.36 1014.11 1014.91 1015.72 1016.55 1017.38 1018.19 1018.98 1019.73
1019.92 1019.43 1018.77 1017.93 1016.93 1015.79 1014.56 1013.26 1011.95 1010.65 1009.42 1008.28 1007.27 1006.40 1005.69 1005.16 1004.79 1004.59 1004.55 1004.65 1004.88 1005.22 1005.66 1006.18 1006.76 1007.39 1008.03 1008.70 1009.37 1010.04 1010.71 1011.38 1012.06 1012.76 1013.48 1014.23 1015.01 1015.81 1016.63 1017.45 1018.26 1019.05 1019.81 1020.52
Thickness
5536 5535 5545 5554 5555 5557 5554 5552 5555 5563 5570 5569 5572 5581 5590 5593 5593 5596 5599 5602 5605 5610 5614 5614 5615 5616 5616 5616 5617 5618 5619 5620 5620 5619 5619 5620 5620 5622 5623 5624 5625 5626 5628 5630
5518 5529 5547 5545 5541 5540 5540 5540 5543 5551 5556 5558 5560 5568 5580 5585 5589 5593 5596 5598 5599 5601 5604 5606 5607 5607 5608 5608 5609 5610 5612 5612 5613 5613 5613 5613 5613 5613 5614 5615 5616 5618 5620 5622
5514 5531 5535 5530 5528 5528 5531 5531 5534 5536 5541 5544 5546 5556 5568 5578 5581 5586 5590 5593 5595 5596 5597 5598 5598 5599 5599 5600 5602 5604 5604 5605 5605 5605 5605 5604 5603 5603 5604 5605 5607 5609 5611 5614
5498 5513 5517 5517 5518 5519 5523 5529 5527 5526 5522 5519 5532 5532 5557 5566 5571 5578 5582 5583 5587 5589 5591 5590 5590 5591 5592 5593 5594 5595 5596 5597 5597 5597 5597 5597 5597 5597 5597 5597 5598 5600 5603 5604
5488 5498 5500 5504 5513 5512 5512 5518 5515 5514 5509 5505 5512 5515 5540 5552 5562 5572 5576 5577 5578 5580 5581 5582 5582 5583 5584 5585 5585 5586 5587 5588 5588 5589 5589 5589 5589 5590 5588 5588 5589 5590 5593 5595
5476 5484 5490 5496 5503 5503 5500 5498 5496 5492 5491 5496 5509 5505 5526 5537 5557 5566 5568 5568 5568 5569 5570 5571 5572 5572 5573 5574 5575 5576 5577 5579 5579 5580 5581 5581 5581 5580 5579 5579 5579 5580 5582 5585
5455 5467 5475 5483 5485 5487 5487 5483 5479 5479 5479 5494 5503 5502 5520 5537 5548 5554 5555 5555 5555 5556 5558 5559 5560 5561 5563 5564 5566 5567 5569 5570 5570 5571 5572 5572 5571 5571 5571 5571 5571 5571 5572 5573
5433 5447 5460 5467 5473 5474 5476 5479 5476 5477 5480 5482 5483 5492 5513 5528 5534 5538 5540 5540 5541 5543 5544 5547 5549 5551 5553 5555 5557 5558 5560 5561 5562 5562 5562 5562 5562 5562 5562 5563 5563 5562 5563 5565
5414 5431 5449 5456 5464 5467 5464 5466 5473 5467 5462 5465 5472 5481 5497 5514 5519 5521 5523 5526 5527 5529 5532 5535 5538 5540 5543 5544 5547 5548 5550 5552 5552 5552 5552 5552 5551 5552 5552 5552 5553 5553 5554 5555
5397 5409 5429 5441 5451 5455 5456 5456 5452 5453 5458 5464 5469 5473 5488 5498 5506 5509 5510 5512 5514 5515 5519 5522 5526 5529 5532 5534 5536 5538 5540 5542 5543 5543 5543 5543 5542 5542 5542 5542 5542 5543 5544 5546
5384 5392 5409 5422 5430 5435 5437 5438 5440 5442 5449 5455 5457 5471 5481 5487 5492 5495 5498 5500 5501 5503 5506 5510 5514 5517 5520 5522 5524 5526 5528 5530 5531 5532 5532 5533 5532 5532 5531 5532 5533 5534 5535 5536
5369 5376 5387 5403 5415 5423 5426 5426 5427 5430 5430 5433 5440 5458 5473 5473 5477 5481 5484 5488 5490 5492 5495 5497 5501 5504 5508 5510 5512 5514 5516 5519 5521 5522 5522 5522 5522 5522 5521 5522 5523 5524 5525 5527
5357 5360 5369 5385 5396 5401 5405 5410 5415 5418 5417 5418 5428 5446 5460 5459 5464 5467 5470 5473 5475 5479 5482 5486 5489 5492 5495 5498 5500 5502 5505 5507 5510 5511 5511 5512 5512 5512 5512 5512 5513 5513 5515 5516
5351 5346 5354 5365 5375 5376 5386 5395 5400 5402 5402 5407 5419 5434 5446 5446 5448 5451 5455 5459 5461 5465 5469 5472 5476 5479 5483 5486 5488 5491 5493 5495 5498 5499 5500 5501 5501 5502 5502 5503 5503 5503 5504 5505
5331 5331 5340 5352 5362 5368 5373 5383 5391 5391 5396 5397 5409 5419 5429 5431 5433 5436 5441 5446 5450 5454 5457 5460 5463 5466 5470 5474 5477 5480 5482 5484 5486 5487 5488 5489 5490 5490 5491 5491 5492 5492 5493 5494
5317 5319 5329 5339 5354 5359 5363 5369 5378 5386 5390 5393 5401 5406 5412 5416 5417 5421 5426 5433 5438 5442 5445 5449 5452 5455 5459 5462 5466 5469 5471 5473 5474 5476 5477 5477 5477 5478 5479 5479 5480 5480 5481 5482
5303 5307 5315 5325 5338 5347 5344 5351 5362 5369 5369 5379 5387 5393 5396 5401 5405 5407 5413 5420 5425 5430 5434 5437 5440 5444 5447 5451 5454 5457 5459 5461 5462 5464 5465 5466 5466 5467 5466 5467 5467 5468 5468 5469
5295 5297 5303 5313 5322 5320 5333 5342 5348 5354 5358 5362 5370 5377 5382 5388 5392 5397 5402 5407 5412 5417 5422 5425 5428 5432 5436 5439 5442 5445 5447 5449 5451 5452 5453 5454 5454 5454 5454 5454 5454 5455 5456 5456
5293 5294 5294 5301 5306 5314 5326 5328 5329 5337 5346 5349 5355 5364 5369 5375 5383 5390 5392 5395 5399 5404 5408 5412 5416 5420 5424 5427 5431 5434 5435 5437 5438 5440 5441 5442 5443 5443 5442 5442 5442 5443 5443 5444
5291 5288 5286 5287 5296 5302 5307 5313 5322 5330 5333 5336 5341 5350 5355 5362 5367 5377 5379 5382 5387 5392 5397 5401 5405 5408 5412 5416 5419 5422 5423 5425 5427 5428 5430 5431 5431 5431 5431 5431 5431 5431 5432 5432
5277 5273 5272 5275 5279 5288 5293 5303 5317 5314 5313 5321 5327 5336 5341 5346 5351 5359 5365 5371 5378 5383 5387 5392 5395 5398 5401 5404 5407 5409 5411 5412 5415 5417 5418 5419 5420 5420 5420 5419 5420 5420 5420 5420
5262 5263 5264 5265 5264 5274 5286 5293 5294 5294 5303 5310 5317 5323 5329 5334 5340 5347 5354 5361 5368 5373 5377 5381 5384 5387 5390 5392 5395 5397 5398 5400 5402 5404 5406 5407 5408 5408 5408 5408 5408 5408 5407 5407
5256 5257 5259 5260 5264 5272 5277 5280 5284 5289 5295 5301 5306 5312 5318 5324 5330 5337 5343 5349 5355 5360 5365 5369 5372 5375 5378 5380 5383 5385 5386 5388 5390 5391 5393 5395 5395 5395 5396 5397 5397 5397 5396 5396
5249 5253 5254 5255 5261 5266 5270 5273 5277 5281 5286 5292 5297 5302 5308 5314 5320 5326 5331 5337 5342 5347 5351 5356 5360 5363 5365 5367 5370 5372 5374 5376 5378 5380 5381 5382 5383 5384 5385 5385 5386 5386 5387 5386
5238 5244 5245 5247 5253 5259 5265 5266 5269 5274 5279 5284 5289 5295 5300 5306 5311 5315 5320 5325 5330 5336 5339 5344 5348 5351 5353 5356 5358 5361 5363 5365 5367 5368 5370 5371 5372 5373 5373 5374 5374 5376 5378 5379
5229 5231 5234 5238 5244 5245 5252 5258 5261 5265 5270 5275 5280 5287 5292 5297 5301 5305 5310 5315 5320 5324 5329 5332 5336 5339 5342 5344 5347 5349 5352 5354 5356 5357 5358 5360 5361 5362 5362 5363 5363 5365 5367 5369